User: anonymous   Login
Location: Caltech
(34.1382°N, 118.1253°W)
Time: 20:54:47
(UTC-08:00)
Language:

KITSAT 1 - Orbit

View from above orbital plane
View from above orbital plane
View from above satellite
View from above satellite

Ground track
Ground track

The orbit data is extracted from the following two-line orbital elements,

1 22077U 92052B   16343.54746932 -.00000050  00000-0  48067-4 0  9998
2 22077  66.0855   5.8806 0002305 185.0779 342.2489 12.86515937142864
Epoch (UTC): 08 December 2016 13:08:21
Eccentricity: 0.0002305
inclination: 66.0855°
perigee height: 1313 km
apogee height: 1317 km
right ascension of ascending node: 5.8806°
argument of perigee: 185.0779°
revolutions per day: 12.86515937
mean anomaly at epoch: 342.2489°
orbit number at epoch: 14286

The dashed part of the orbit path shows where the satellite is in the earth's shadow,  

DLR